Time,TemperatureF,DewpointF,PressureIn,WindDirection,WindDirectionDegrees,WindSpeedMPH,WindSpeedGustMPH,Humidity,HourlyPrecipIn,Conditions,Clouds,dailyrainin,SolarRadiationWatts/m^2,SoftwareType,DateUTC
2013-04-29 00:04:00,52.3,34.2,29.89,ESE,108,0.0,5.0,50,0.00,,,0.00,0,WeatherCatV1.15B25,2013-04-29 07:04:00,
2013-04-29 00:09:00,52.3,33.2,29.89,ESE,102,0.0,4.0,48,0.00,,,0.00,0,WeatherCatV1.15B25,2013-04-29 07:09:00,
2013-04-29 00:14:00,52.2,33.1,29.88,ESE,103,1.0,3.0,48,0.00,,,0.00,0,WeatherCatV1.15B25,2013-04-29 07:14:00,
2013-04-29 00:19:00,52.0,32.9,29.88,ESE,103,2.0,3.0,48,0.00,,,0.00,0,WeatherCatV1.15B25,2013-04-29 07:19:00,
2013-04-29 00:24:00,51.9,32.3,29.88,ESE,103,2.0,3.0,47,0.00,,,0.00,0,WeatherCatV1.15B25,2013-04-29 07:24:00,
2013-04-29 00:29:00,51.9,31.8,29.88,SE,141,6.0,6.0,46,0.00,,,0.00,0,WeatherCatV1.15B25,2013-04-29 07:29:00,
2013-04-29 00:34:00,51.9,30.7,29.88,SE,141,3.0,6.0,44,0.00,,,0.00,0,WeatherCatV1.15B25,2013-04-29 07:34:00,
2013-04-29 00:39:00,51.9,29.5,29.88,SSE,147,0.0,10.0,42,0.00,,,0.00,0,WeatherCatV1.15B25,2013-04-29 07:39:00,
2013-04-29 00:44:00,51.7,29.4,29.88,SSE,151,5.0,7.0,42,0.00,,,0.00,0,WeatherCatV1.15B25,2013-04-29 07:44:00,
2013-04-29 00:49:00,51.7,28.8,29.88,SSE,149,3.0,5.0,41,0.00,,,0.00,0,WeatherCatV1.15B25,2013-04-29 07:49:00,
2013-04-29 00:54:00,51.7,28.8,29.88,SSE,148,2.0,4.0,41,0.00,,,0.00,0,WeatherCatV1.15B25,2013-04-29 07:54:00,
2013-04-29 00:59:00,51.6,28.7,29.88,SE,139,3.0,4.0,41,0.00,,,0.00,0,WeatherCatV1.15B25,2013-04-29 07:59:00,
2013-04-29 01:04:00,51.4,27.9,29.88,SE,139,0.0,0.0,40,0.00,,,0.00,0,WeatherCatV1.15B25,2013-04-29 08:04:00,
2013-04-29 01:09:00,51.4,27.9,29.88,SE,139,3.0,4.0,40,0.00,,,0.00,0,WeatherCatV1.15B25,2013-04-29 08:09:00,
2013-04-29 01:14:00,51.6,27.5,29.87,SE,141,2.0,5.0,39,0.00,,,0.00,0,WeatherCatV1.15B25,2013-04-29 08:14:00,
2013-04-29 01:19:00,51.7,27.6,29.87,SE,141,4.0,4.0,39,0.00,,,0.00,0,WeatherCatV1.15B25,2013-04-29 08:19:00,
2013-04-29 01:24:00,51.9,27.7,29.87,SE,141,2.0,3.0,39,0.00,,,0.00,0,WeatherCatV1.15B25,2013-04-29 08:24:00,
2013-04-29 01:29:00,51.7,27.6,29.85,SE,137,2.0,4.0,39,0.00,,,0.00,0,WeatherCatV1.15B25,2013-04-29 08:29:00,
2013-04-29 01:34:00,51.7,27.6,29.85,SE,137,0.0,4.0,39,0.00,,,0.00,0,WeatherCatV1.15B25,2013-04-29 08:34:00,
2013-04-29 01:39:00,51.7,26.9,29.85,SE,137,3.0,5.0,38,0.00,,,0.00,0,WeatherCatV1.15B25,2013-04-29 08:39:00,
2013-04-29 01:44:00,51.7,26.9,29.85,SE,138,1.0,5.0,38,0.00,,,0.00,0,WeatherCatV1.15B25,2013-04-29 08:44:00,
2013-04-29 01:49:00,51.7,27.6,29.85,SE,138,3.0,4.0,39,0.00,,,0.00,0,WeatherCatV1.15B25,2013-04-29 08:49:00,
2013-04-29 01:54:00,51.7,27.6,29.85,SE,138,6.0,6.0,39,0.00,,,0.00,0,WeatherCatV1.15B25,2013-04-29 08:54:00,
2013-04-29 01:59:00,51.7,26.9,29.84,SE,141,5.0,5.0,38,0.00,,,0.00,0,WeatherCatV1.15B25,2013-04-29 08:59:00,
2013-04-29 02:04:00,51.7,26.9,29.84,SE,142,3.0,5.0,38,0.00,,,0.00,0,WeatherCatV1.15B25,2013-04-29 09:04:00,
2013-04-29 02:09:00,51.7,26.9,29.84,SE,142,3.0,5.0,38,0.00,,,0.00,0,WeatherCatV1.15B25,2013-04-29 09:09:00,
2013-04-29 02:14:00,51.7,26.9,29.84,SE,141,0.0,0.0,38,0.00,,,0.00,0,WeatherCatV1.15B25,2013-04-29 09:14:00,
2013-04-29 02:19:00,51.6,26.8,29.84,SE,141,3.0,4.0,38,0.00,,,0.00,0,WeatherCatV1.15B25,2013-04-29 09:19:00,
2013-04-29 02:24:00,51.4,27.3,29.84,SE,141,0.0,2.0,39,0.00,,,0.00,0,WeatherCatV1.15B25,2013-04-29 09:24:00,
2013-04-29 02:29:00,51.3,27.8,29.83,SE,141,0.0,0.0,40,0.00,,,0.00,0,WeatherCatV1.15B25,2013-04-29 09:29:00,
2013-04-29 02:34:00,50.8,28.0,29.83,SE,141,0.0,0.0,41,0.00,,,0.00,0,WeatherCatV1.15B25,2013-04-29 09:34:00,
2013-04-29 02:39:00,50.4,27.6,29.83,SE,141,0.0,0.0,41,0.00,,,0.00,0,WeatherCatV1.15B25,2013-04-29 09:39:00,
2013-04-29 02:44:00,50.2,28.0,29.84,SE,141,0.0,0.0,42,0.00,,,0.00,0,WeatherCatV1.15B25,2013-04-29 09:44:00,
2013-04-29 02:49:00,50.1,27.3,29.84,SE,141,0.0,0.0,41,0.00,,,0.00,0,WeatherCatV1.15B25,2013-04-29 09:49:00,
2013-04-29 02:54:00,49.8,28.2,29.84,SE,141,0.0,0.0,43,0.00,,,0.00,0,WeatherCatV1.15B25,2013-04-29 09:54:00,
2013-04-29 02:59:00,49.6,26.9,29.83,SE,141,2.0,5.0,41,0.00,,,0.00,0,WeatherCatV1.15B25,2013-04-29 09:59:00,
2013-04-29 03:04:00,49.8,27.6,29.83,SE,141,0.0,0.0,42,0.00,,,0.00,0,WeatherCatV1.15B25,2013-04-29 10:04:00,
2013-04-29 03:09:00,49.8,27.6,29.83,SE,141,0.0,0.0,42,0.00,,,0.00,0,WeatherCatV1.15B25,2013-04-29 10:09:00,
2013-04-29 03:14:00,49.5,27.9,29.83,SE,141,0.0,0.0,43,0.00,,,0.00,0,WeatherCatV1.15B25,2013-04-29 10:14:00,
2013-04-29 03:19:00,48.9,28.5,29.83,SE,124,0.0,2.0,45,0.00,,,0.00,0,WeatherCatV1.15B25,2013-04-29 10:19:00,
2013-04-29 03:24:00,48.3,28.5,29.83,ESE,118,1.0,2.0,46,0.00,,,0.00,0,WeatherCatV1.15B25,2013-04-29 10:24:00,
2013-04-29 03:29:00,47.9,28.7,29.84,ESE,117,1.0,2.0,47,0.00,,,0.00,0,WeatherCatV1.15B25,2013-04-29 10:29:00,
2013-04-29 03:34:00,47.7,29.0,29.84,ESE,114,1.0,3.0,48,0.00,,,0.00,0,WeatherCatV1.15B25,2013-04-29 10:34:00,
2013-04-29 03:39:00,47.6,28.9,29.84,ESE,114,0.0,3.0,48,0.00,,,0.00,0,WeatherCatV1.15B25,2013-04-29 10:39:00,
2013-04-29 03:44:00,47.4,28.7,29.84,ESE,112,0.0,4.0,48,0.00,,,0.00,0,WeatherCatV1.15B25,2013-04-29 10:44:00,
2013-04-29 03:49:00,47.3,29.1,29.84,ESE,111,0.0,2.0,49,0.00,,,0.00,0,WeatherCatV1.15B25,2013-04-29 10:49:00,
2013-04-29 03:54:00,47.1,28.9,29.84,ESE,110,0.0,4.0,49,0.00,,,0.00,0,WeatherCatV1.15B25,2013-04-29 10:54:00,
2013-04-29 03:59:00,47.3,29.1,29.84,ESE,111,3.0,3.0,49,0.00,,,0.00,0,WeatherCatV1.15B25,2013-04-29 10:59:00,
2013-04-29 04:04:00,47.3,28.6,29.84,SE,135,4.0,6.0,48,0.00,,,0.00,0,WeatherCatV1.15B25,2013-04-29 11:04:00,
2013-04-29 04:09:00,47.7,27.9,29.84,SSE,153,1.0,5.0,46,0.00,,,0.00,0,WeatherCatV1.15B25,2013-04-29 11:09:00,
2013-04-29 04:14:00,48.2,27.9,29.83,SE,135,5.0,6.0,45,0.00,,,0.00,0,WeatherCatV1.15B25,2013-04-29 11:14:00,
2013-04-29 04:19:00,48.6,27.7,29.83,SE,137,0.0,4.0,44,0.00,,,0.00,0,WeatherCatV1.15B25,2013-04-29 11:19:00,
2013-04-29 04:24:00,49.1,28.1,29.83,SE,136,4.0,5.0,44,0.00,,,0.00,0,WeatherCatV1.15B25,2013-04-29 11:24:00,
2013-04-29 04:29:00,49.2,28.8,29.82,SE,126,3.0,5.0,45,0.00,,,0.00,0,WeatherCatV1.15B25,2013-04-29 11:29:00,
2013-04-29 04:34:00,49.1,29.2,29.82,SE,126,0.0,3.0,46,0.00,,,0.00,0,WeatherCatV1.15B25,2013-04-29 11:34:00,
2013-04-29 04:39:00,48.6,29.3,29.82,SE,126,0.0,0.0,47,0.00,,,0.00,0,WeatherCatV1.15B25,2013-04-29 11:39:00,
2013-04-29 04:44:00,47.9,29.2,29.81,SE,126,1.0,4.0,48,0.00,,,0.00,0,WeatherCatV1.15B25,2013-04-29 11:44:00,
2013-04-29 04:49:00,47.7,29.0,29.81,SE,125,3.0,3.0,48,0.00,,,0.00,0,WeatherCatV1.15B25,2013-04-29 11:49:00,
2013-04-29 04:54:00,47.6,28.4,29.81,ESE,123,0.0,1.0,47,0.00,,,0.00,0,WeatherCatV1.15B25,2013-04-29 11:54:00,
2013-04-29 04:59:00,47.4,28.7,29.83,ESE,122,0.0,2.0,48,0.00,,,0.00,0,WeatherCatV1.15B25,2013-04-29 11:59:00,
2013-04-29 05:04:00,47.3,28.6,29.83,ESE,122,0.0,0.0,48,0.00,,,0.00,0,WeatherCatV1.15B25,2013-04-29 12:04:00,
2013-04-29 05:09:00,47.1,28.4,29.83,ESE,122,0.0,0.0,48,0.00,,,0.00,0,WeatherCatV1.15B25,2013-04-29 12:09:00,
2013-04-29 05:14:00,47.0,28.8,29.82,ESE,121,3.0,3.0,49,0.00,,,0.00,0,WeatherCatV1.15B25,2013-04-29 12:14:00,
2013-04-29 05:19:00,47.0,28.3,29.82,ESE,121,0.0,3.0,48,0.00,,,0.00,0,WeatherCatV1.15B25,2013-04-29 12:19:00,
2013-04-29 05:24:00,47.0,28.3,29.82,ESE,121,0.0,0.0,48,0.00,,,0.00,0,WeatherCatV1.15B25,2013-04-29 12:24:00,
2013-04-29 05:29:00,47.1,28.4,29.83,ESE,121,0.0,1.0,48,0.00,,,0.00,0,WeatherCatV1.15B25,2013-04-29 12:29:00,
2013-04-29 05:34:00,47.0,28.3,29.83,ESE,121,0.0,0.0,48,0.00,,,0.00,0,WeatherCatV1.15B25,2013-04-29 12:34:00,
2013-04-29 05:39:00,47.0,28.3,29.83,ESE,121,0.0,0.0,48,0.00,,,0.00,0,WeatherCatV1.15B25,2013-04-29 12:39:00,
2013-04-29 05:44:00,47.0,29.3,29.83,SSE,157,3.0,4.0,50,0.00,,,0.00,0,WeatherCatV1.15B25,2013-04-29 12:44:00,
2013-04-29 05:49:00,46.4,29.7,29.83,SSE,157,3.0,3.0,52,0.00,,,0.00,0,WeatherCatV1.15B25,2013-04-29 12:49:00,
2013-04-29 05:54:00,46.1,29.5,29.83,SSE,157,0.0,3.0,52,0.00,,,0.00,0,WeatherCatV1.15B25,2013-04-29 12:54:00,
2013-04-29 05:59:00,45.8,28.7,29.84,SSE,149,0.0,1.0,51,0.00,,,0.00,0,WeatherCatV1.15B25,2013-04-29 12:59:00,
2013-04-29 06:04:00,45.5,28.4,29.84,SE,133,0.0,2.0,51,0.00,,,0.00,0,WeatherCatV1.15B25,2013-04-29 13:04:00,
2013-04-29 06:09:00,45.5,28.9,29.84,East,86,0.0,4.0,52,0.00,,,0.00,7,WeatherCatV1.15B25,2013-04-29 13:09:00,
2013-04-29 06:14:00,45.7,29.1,29.85,East,85,0.0,0.0,52,0.00,,,0.00,9,WeatherCatV1.15B25,2013-04-29 13:14:00,
2013-04-29 06:19:00,45.8,29.2,29.85,East,85,0.0,0.0,52,0.00,,,0.00,12,WeatherCatV1.15B25,2013-04-29 13:19:00,
2013-04-29 06:24:00,46.0,29.4,29.85,East,85,0.0,2.0,52,0.00,,,0.00,14,WeatherCatV1.15B25,2013-04-29 13:24:00,
2013-04-29 06:29:00,46.0,29.4,29.85,East,85,3.0,3.0,52,0.00,,,0.00,19,WeatherCatV1.15B25,2013-04-29 13:29:00,
2013-04-29 06:34:00,46.2,29.1,29.85,East,101,0.0,3.0,51,0.00,,,0.00,26,WeatherCatV1.15B25,2013-04-29 13:34:00,
2013-04-29 06:39:00,46.8,29.2,29.85,ESE,106,0.0,2.0,50,0.00,,,0.00,37,WeatherCatV1.15B25,2013-04-29 13:39:00,
2013-04-29 06:44:00,47.1,29.4,29.84,ESE,106,0.0,3.0,50,0.00,,,0.00,47,WeatherCatV1.15B25,2013-04-29 13:44:00,
2013-04-29 06:49:00,47.4,29.7,29.84,ESE,107,0.0,2.0,50,0.00,,,0.00,62,WeatherCatV1.15B25,2013-04-29 13:49:00,
2013-04-29 06:54:00,47.7,30.5,29.84,ESE,108,0.0,3.0,51,0.00,,,0.00,76,WeatherCatV1.15B25,2013-04-29 13:54:00,
2013-04-29 06:59:00,48.0,30.3,29.85,ESE,106,0.0,0.0,50,0.00,,,0.00,90,WeatherCatV1.15B25,2013-04-29 13:59:00,
2013-04-29 07:04:00,48.3,30.0,29.85,ESE,106,0.0,0.0,49,0.00,,,0.00,104,WeatherCatV1.15B25,2013-04-29 14:04:00,
2013-04-29 07:09:00,48.9,30.1,29.85,ESE,106,0.0,1.0,48,0.00,,,0.00,118,WeatherCatV1.15B25,2013-04-29 14:09:00,
2013-04-29 07:14:00,49.8,30.9,29.87,ESE,106,0.0,3.0,48,0.00,,,0.00,134,WeatherCatV1.15B25,2013-04-29 14:14:00,
2013-04-29 07:19:00,50.2,30.2,29.87,ESE,106,0.0,2.0,46,0.00,,,0.00,149,WeatherCatV1.15B25,2013-04-29 14:19:00,
2013-04-29 07:24:00,50.7,31.2,29.87,ESE,106,0.0,2.0,47,0.00,,,0.00,163,WeatherCatV1.15B25,2013-04-29 14:24:00,
2013-04-29 07:29:00,51.1,30.5,29.86,ESE,106,1.0,1.0,45,0.00,,,0.00,181,WeatherCatV1.15B25,2013-04-29 14:29:00,
2013-04-29 07:34:00,51.3,31.8,29.86,ESE,106,0.0,0.0,47,0.00,,,0.00,197,WeatherCatV1.15B25,2013-04-29 14:34:00,
2013-04-29 07:39:00,51.4,32.9,29.86,ESE,106,2.0,2.0,49,0.00,,,0.00,211,WeatherCatV1.15B25,2013-04-29 14:39:00,
2013-04-29 07:44:00,51.0,33.0,29.85,NE,37,1.0,3.0,50,0.00,,,0.00,230,WeatherCatV1.15B25,2013-04-29 14:44:00,
2013-04-29 07:49:00,50.5,33.1,29.85,NE,37,0.0,0.0,51,0.00,,,0.00,246,WeatherCatV1.15B25,2013-04-29 14:49:00,
2013-04-29 07:54:00,50.1,32.7,29.85,NE,37,0.0,0.0,51,0.00,,,0.00,265,WeatherCatV1.15B25,2013-04-29 14:54:00,
2013-04-29 07:59:00,49.8,33.8,29.87,NE,37,0.0,0.0,54,0.00,,,0.00,281,WeatherCatV1.15B25,2013-04-29 14:59:00,
2013-04-29 08:04:00,49.6,32.7,29.87,NE,37,0.0,0.0,52,0.00,,,0.00,301,WeatherCatV1.15B25,2013-04-29 15:04:00,
2013-04-29 08:09:00,49.5,33.1,29.87,NE,37,0.0,0.0,53,0.00,,,0.00,320,WeatherCatV1.15B25,2013-04-29 15:09:00,
2013-04-29 08:14:00,49.9,33.0,29.88,ENE,60,0.0,4.0,52,0.00,,,0.00,338,WeatherCatV1.15B25,2013-04-29 15:14:00,
2013-04-29 08:19:00,51.0,33.5,29.88,ENE,66,0.0,2.0,51,0.00,,,0.00,359,WeatherCatV1.15B25,2013-04-29 15:19:00,
2013-04-29 08:24:00,52.3,32.7,29.88,ENE,68,0.0,4.0,47,0.00,,,0.00,376,WeatherCatV1.15B25,2013-04-29 15:24:00,
2013-04-29 08:29:00,53.5,32.7,29.85,ESE,103,0.0,4.0,45,0.00,,,0.00,374,WeatherCatV1.15B25,2013-04-29 15:29:00,
2013-04-29 08:34:00,54.2,32.8,29.85,ENE,66,0.0,1.0,44,0.00,,,0.00,338,WeatherCatV1.15B25,2013-04-29 15:34:00,
2013-04-29 08:39:00,54.5,33.0,29.85,ENE,69,0.0,0.0,44,0.00,,,0.00,418,WeatherCatV1.15B25,2013-04-29 15:39:00,
2013-04-29 08:44:00,54.8,32.7,29.84,ENE,70,0.0,0.0,43,0.00,,,0.00,448,WeatherCatV1.15B25,2013-04-29 15:44:00,
2013-04-29 08:49:00,55.4,32.7,29.84,East,89,0.0,0.0,42,0.00,,,0.00,434,WeatherCatV1.15B25,2013-04-29 15:49:00,
2013-04-29 08:54:00,55.6,32.3,29.84,East,83,1.0,3.0,41,0.00,,,0.00,468,WeatherCatV1.15B25,2013-04-29 15:54:00,
2013-04-29 08:59:00,54.8,33.3,29.84,NNE,18,1.0,3.0,44,0.00,,,0.00,422,WeatherCatV1.15B25,2013-04-29 15:59:00,
2013-04-29 09:04:00,54.7,35.9,29.84,WNW,293,2.0,5.0,49,0.00,,,0.00,499,WeatherCatV1.15B25,2013-04-29 16:04:00,
2013-04-29 09:09:00,54.4,36.2,29.84,WNW,288,1.0,3.0,50,0.00,,,0.00,459,WeatherCatV1.15B25,2013-04-29 16:09:00,
2013-04-29 09:14:00,54.2,35.5,29.85,WNW,293,0.0,2.0,49,0.00,,,0.00,527,WeatherCatV1.15B25,2013-04-29 16:14:00,
2013-04-29 09:19:00,53.8,36.1,29.85,WNW,293,2.0,4.0,51,0.00,,,0.00,508,WeatherCatV1.15B25,2013-04-29 16:19:00,
2013-04-29 09:24:00,53.8,36.6,29.85,WNW,293,2.0,3.0,52,0.00,,,0.00,559,WeatherCatV1.15B25,2013-04-29 16:24:00,
2013-04-29 09:29:00,53.6,36.4,29.85,WNW,288,1.0,6.0,52,0.00,,,0.00,580,WeatherCatV1.15B25,2013-04-29 16:29:00,
2013-04-29 09:34:00,53.6,35.9,29.85,WNW,293,1.0,4.0,51,0.00,,,0.00,601,WeatherCatV1.15B25,2013-04-29 16:34:00,
2013-04-29 09:39:00,53.8,36.6,29.85,WNW,299,0.0,3.0,52,0.00,,,0.00,613,WeatherCatV1.15B25,2013-04-29 16:39:00,
2013-04-29 09:44:00,53.9,36.7,29.85,WNW,288,4.0,5.0,52,0.00,,,0.00,610,WeatherCatV1.15B25,2013-04-29 16:44:00,
2013-04-29 09:49:00,54.2,37.0,29.85,WNW,299,6.0,6.0,52,0.00,,,0.00,633,WeatherCatV1.15B25,2013-04-29 16:49:00,
2013-04-29 09:54:00,54.5,36.7,29.85,WNW,300,2.0,5.0,51,0.00,,,0.00,657,WeatherCatV1.15B25,2013-04-29 16:54:00,
2013-04-29 09:59:00,54.7,36.9,29.85,WNW,283,6.0,7.0,51,0.00,,,0.00,652,WeatherCatV1.15B25,2013-04-29 16:59:00,
2013-04-29 10:04:00,54.8,37.5,29.85,NW,312,3.0,6.0,52,0.00,,,0.00,636,WeatherCatV1.15B25,2013-04-29 17:04:00,
2013-04-29 10:09:00,55.0,37.2,29.85,WNW,293,5.0,7.0,51,0.00,,,0.00,656,WeatherCatV1.15B25,2013-04-29 17:09:00,
2013-04-29 10:14:00,55.0,37.7,29.86,WNW,293,5.0,8.0,52,0.00,,,0.00,687,WeatherCatV1.15B25,2013-04-29 17:14:00,
2013-04-29 10:19:00,55.1,37.8,29.86,WNW,283,3.0,7.0,52,0.00,,,0.00,701,WeatherCatV1.15B25,2013-04-29 17:19:00,
2013-04-29 10:24:00,55.4,38.1,29.86,WNW,293,4.0,6.0,52,0.00,,,0.00,712,WeatherCatV1.15B25,2013-04-29 17:24:00,
2013-04-29 10:29:00,55.7,37.3,29.85,WNW,293,3.0,9.0,50,0.00,,,0.00,684,WeatherCatV1.15B25,2013-04-29 17:29:00,
2013-04-29 10:34:00,55.9,36.0,29.85,NW,307,10.0,11.0,47,0.00,,,0.00,708,WeatherCatV1.15B25,2013-04-29 17:34:00,
2013-04-29 10:39:00,56.0,36.1,29.85,West,276,9.0,10.0,47,0.00,,,0.00,726,WeatherCatV1.15B25,2013-04-29 17:39:00,
2013-04-29 10:44:00,56.2,36.8,29.85,West,273,7.0,14.0,48,0.00,,,0.00,788,WeatherCatV1.15B25,2013-04-29 17:44:00,
2013-04-29 10:49:00,56.3,37.4,29.85,WNW,288,2.0,10.0,49,0.00,,,0.00,798,WeatherCatV1.15B25,2013-04-29 17:49:00,
2013-04-29 10:54:00,56.7,38.8,29.85,WNW,293,5.0,9.0,51,0.00,,,0.00,800,WeatherCatV1.15B25,2013-04-29 17:54:00,
2013-04-29 10:59:00,57.0,38.0,29.84,WNW,299,5.0,12.0,49,0.00,,,0.00,803,WeatherCatV1.15B25,2013-04-29 17:59:00,
2013-04-29 11:04:00,56.9,38.5,29.84,WNW,298,4.0,12.0,50,0.00,,,0.00,821,WeatherCatV1.15B25,2013-04-29 18:04:00,
2013-04-29 11:09:00,57.0,38.0,29.84,WNW,293,7.0,11.0,49,0.00,,,0.00,824,WeatherCatV1.15B25,2013-04-29 18:09:00,
2013-04-29 11:14:00,57.2,37.2,29.83,West,270,9.0,11.0,47,0.00,,,0.00,805,WeatherCatV1.15B25,2013-04-29 18:14:00,
2013-04-29 11:19:00,57.5,36.9,29.83,West,278,5.0,10.0,46,0.00,,,0.00,828,WeatherCatV1.15B25,2013-04-29 18:19:00,
2013-04-29 11:24:00,57.8,37.2,29.83,WNW,299,9.0,11.0,46,0.00,,,0.00,853,WeatherCatV1.15B25,2013-04-29 18:24:00,
2013-04-29 11:29:00,58.1,38.5,29.82,West,265,5.0,5.0,48,0.00,,,0.00,854,WeatherCatV1.15B25,2013-04-29 18:29:00,
2013-04-29 11:34:00,58.6,36.8,29.82,WNW,283,12.0,13.0,44,0.00,,,0.00,789,WeatherCatV1.15B25,2013-04-29 18:34:00,
2013-04-29 11:39:00,58.7,36.3,29.82,WNW,288,11.0,13.0,43,0.00,,,0.00,816,WeatherCatV1.15B25,2013-04-29 18:39:00,
2013-04-29 11:44:00,58.9,36.4,29.82,WNW,283,10.0,14.0,43,0.00,,,0.00,837,WeatherCatV1.15B25,2013-04-29 18:44:00,
2013-04-29 11:49:00,59.0,34.7,29.82,West,272,8.0,14.0,40,0.00,,,0.00,833,WeatherCatV1.15B25,2013-04-29 18:49:00,
2013-04-29 11:54:00,59.0,32.1,29.82,WNW,288,9.0,17.0,36,0.00,,,0.00,875,WeatherCatV1.15B25,2013-04-29 18:54:00,
2013-04-29 11:59:00,59.2,34.3,29.82,WNW,293,8.0,13.0,39,0.00,,,0.00,844,WeatherCatV1.15B25,2013-04-29 18:59:00,
2013-04-29 12:04:00,59.3,34.3,29.82,WNW,283,8.0,11.0,39,0.00,,,0.00,798,WeatherCatV1.15B25,2013-04-29 19:04:00,
2013-04-29 12:09:00,59.6,35.9,29.82,WNW,297,9.0,13.0,41,0.00,,,0.00,907,WeatherCatV1.15B25,2013-04-29 19:09:00,
2013-04-29 12:14:00,60.1,36.3,29.79,West,259,7.0,14.0,41,0.00,,,0.00,909,WeatherCatV1.15B25,2013-04-29 19:14:00,
2013-04-29 12:19:00,60.4,34.7,29.79,WNW,293,10.0,13.0,38,0.00,,,0.00,923,WeatherCatV1.15B25,2013-04-29 19:19:00,
2013-04-29 12:24:00,60.4,33.3,29.79,WSW,248,12.0,17.0,36,0.00,,,0.00,946,WeatherCatV1.15B25,2013-04-29 19:24:00,
2013-04-29 12:29:00,59.9,34.2,29.78,NW,316,11.0,20.0,38,0.00,,,0.00,946,WeatherCatV1.15B25,2013-04-29 19:29:00,
2013-04-29 12:34:00,59.9,33.6,29.78,WNW,293,11.0,16.0,37,0.00,,,0.00,946,WeatherCatV1.15B25,2013-04-29 19:34:00,
2013-04-29 12:39:00,60.2,33.1,29.78,NW,314,12.0,15.0,36,0.00,,,0.00,942,WeatherCatV1.15B25,2013-04-29 19:39:00,
2013-04-29 12:44:00,60.5,29.7,29.78,WSW,253,8.0,18.0,31,0.00,,,0.00,958,WeatherCatV1.15B25,2013-04-29 19:44:00,
2013-04-29 12:49:00,60.7,32.9,29.78,WNW,288,9.0,13.0,35,0.00,,,0.00,937,WeatherCatV1.15B25,2013-04-29 19:49:00,
2013-04-29 12:54:00,61.3,32.0,29.78,WNW,283,12.0,18.0,33,0.00,,,0.00,960,WeatherCatV1.15B25,2013-04-29 19:54:00,
2013-04-29 12:59:00,62.0,32.6,29.76,NW,315,5.0,16.0,33,0.00,,,0.00,954,WeatherCatV1.15B25,2013-04-29 19:59:00,
2013-04-29 13:04:00,61.8,30.8,29.76,WNW,288,12.0,16.0,31,0.00,,,0.00,960,WeatherCatV1.15B25,2013-04-29 20:04:00,
2013-04-29 13:09:00,61.8,31.6,29.76,WNW,293,10.0,18.0,32,0.00,,,0.00,965,WeatherCatV1.15B25,2013-04-29 20:09:00,
2013-04-29 13:14:00,61.3,28.8,29.77,WNW,302,17.0,20.0,29,0.00,,,0.00,960,WeatherCatV1.15B25,2013-04-29 20:14:00,
2013-04-29 13:19:00,61.2,31.1,29.77,WNW,303,19.0,22.0,32,0.00,,,0.00,962,WeatherCatV1.15B25,2013-04-29 20:19:00,
2013-04-29 13:24:00,61.3,28.8,29.77,WNW,297,15.0,24.0,29,0.00,,,0.00,967,WeatherCatV1.15B25,2013-04-29 20:24:00,
2013-04-29 13:29:00,61.2,28.7,29.77,WSW,245,11.0,22.0,29,0.00,,,0.00,967,WeatherCatV1.15B25,2013-04-29 20:29:00,
2013-04-29 13:34:00,61.6,29.9,29.77,West,260,6.0,19.0,30,0.00,,,0.00,972,WeatherCatV1.15B25,2013-04-29 20:34:00,
2013-04-29 13:39:00,61.8,30.8,29.77,WSW,249,17.0,17.0,31,0.00,,,0.00,963,WeatherCatV1.15B25,2013-04-29 20:39:00,
2013-04-29 13:44:00,61.5,28.1,29.75,NW,326,13.0,22.0,28,0.00,,,0.00,970,WeatherCatV1.15B25,2013-04-29 20:44:00,
2013-04-29 13:49:00,61.5,30.6,29.75,WNW,293,9.0,21.0,31,0.00,,,0.00,976,WeatherCatV1.15B25,2013-04-29 20:49:00,
2013-04-29 13:54:00,61.6,28.2,29.75,NW,307,15.0,27.0,28,0.00,,,0.00,918,WeatherCatV1.15B25,2013-04-29 20:54:00,
2013-04-29 13:59:00,61.3,29.6,29.75,WNW,293,16.0,29.0,30,0.00,,,0.00,911,WeatherCatV1.15B25,2013-04-29 20:59:00,
2013-04-29 14:04:00,61.3,30.4,29.75,WNW,300,10.0,21.0,31,0.00,,,0.00,956,WeatherCatV1.15B25,2013-04-29 21:04:00,
2013-04-29 14:09:00,61.8,30.8,29.75,WNW,297,21.0,21.0,31,0.00,,,0.00,954,WeatherCatV1.15B25,2013-04-29 21:09:00,
2013-04-29 14:14:00,61.8,30.8,29.76,WNW,293,17.0,24.0,31,0.00,,,0.00,935,WeatherCatV1.15B25,2013-04-29 21:14:00,
2013-04-29 14:19:00,61.5,30.6,29.76,NW,307,15.0,28.0,31,0.00,,,0.00,951,WeatherCatV1.15B25,2013-04-29 21:19:00,
2013-04-29 14:24:00,61.3,31.2,29.76,West,277,18.0,24.0,32,0.00,,,0.00,940,WeatherCatV1.15B25,2013-04-29 21:24:00,
2013-04-29 14:29:00,61.6,33.0,29.75,WNW,293,15.0,15.0,34,0.00,,,0.00,904,WeatherCatV1.15B25,2013-04-29 21:29:00,
2013-04-29 14:34:00,62.0,32.6,29.75,West,278,16.0,18.0,33,0.00,,,0.00,912,WeatherCatV1.15B25,2013-04-29 21:34:00,
2013-04-29 14:39:00,61.8,33.1,29.75,WNW,303,19.0,23.0,34,0.00,,,0.00,893,WeatherCatV1.15B25,2013-04-29 21:39:00,
2013-04-29 14:44:00,62.1,30.3,29.75,West,272,13.0,23.0,30,0.00,,,0.00,898,WeatherCatV1.15B25,2013-04-29 21:44:00,
2013-04-29 14:49:00,62.3,29.6,29.75,WSW,255,12.0,22.0,29,0.00,,,0.00,939,WeatherCatV1.15B25,2013-04-29 21:49:00,
2013-04-29 14:54:00,62.4,30.6,29.75,WNW,299,19.0,28.0,30,0.00,,,0.00,947,WeatherCatV1.15B25,2013-04-29 21:54:00,
2013-04-29 14:59:00,62.0,31.0,29.74,WNW,293,24.0,28.0,31,0.00,,,0.00,854,WeatherCatV1.15B25,2013-04-29 21:59:00,
2013-04-29 15:04:00,61.6,28.2,29.74,NW,306,20.0,27.0,28,0.00,,,0.00,928,WeatherCatV1.15B25,2013-04-29 22:04:00,
2013-04-29 15:09:00,61.8,30.0,29.74,NW,314,15.0,25.0,30,0.00,,,0.00,874,WeatherCatV1.15B25,2013-04-29 22:09:00,
2013-04-29 15:14:00,62.1,31.1,29.77,NW,306,7.0,22.0,31,0.00,,,0.00,886,WeatherCatV1.15B25,2013-04-29 22:14:00,
2013-04-29 15:19:00,62.4,29.7,29.77,NW,305,20.0,22.0,29,0.00,,,0.00,863,WeatherCatV1.15B25,2013-04-29 22:19:00,
2013-04-29 15:24:00,62.3,29.6,29.77,WNW,293,15.0,23.0,29,0.00,,,0.00,944,WeatherCatV1.15B25,2013-04-29 22:24:00,
2013-04-29 15:29:00,62.0,30.2,29.76,West,275,19.0,21.0,30,0.00,,,0.00,900,WeatherCatV1.15B25,2013-04-29 22:29:00,
2013-04-29 15:34:00,62.0,30.2,29.76,WNW,303,15.0,26.0,30,0.00,,,0.00,863,WeatherCatV1.15B25,2013-04-29 22:34:00,
2013-04-29 15:39:00,62.0,30.2,29.76,WNW,288,20.0,28.0,30,0.00,,,0.00,861,WeatherCatV1.15B25,2013-04-29 22:39:00,
2013-04-29 15:44:00,62.0,31.0,29.76,WNW,288,19.0,25.0,31,0.00,,,0.00,817,WeatherCatV1.15B25,2013-04-29 22:44:00,
2013-04-29 15:49:00,61.8,31.6,29.76,West,275,19.0,25.0,32,0.00,,,0.00,779,WeatherCatV1.15B25,2013-04-29 22:49:00,
2013-04-29 15:54:00,62.0,31.8,29.76,WNW,299,15.0,28.0,32,0.00,,,0.00,775,WeatherCatV1.15B25,2013-04-29 22:54:00,
2013-04-29 15:59:00,61.6,32.2,29.75,WNW,283,13.0,26.0,33,0.00,,,0.00,605,WeatherCatV1.15B25,2013-04-29 22:59:00,
2013-04-29 16:04:00,61.5,32.1,29.75,WNW,297,15.0,22.0,33,0.00,,,0.00,786,WeatherCatV1.15B25,2013-04-29 23:04:00,
2013-04-29 16:09:00,61.3,31.2,29.75,WNW,293,20.0,24.0,32,0.00,,,0.00,483,WeatherCatV1.15B25,2013-04-29 23:09:00,
2013-04-29 16:14:00,61.0,30.9,29.74,WNW,283,16.0,26.0,32,0.00,,,0.00,584,WeatherCatV1.15B25,2013-04-29 23:14:00,
2013-04-29 16:19:00,61.0,30.9,29.74,WNW,288,28.0,28.0,32,0.00,,,0.00,578,WeatherCatV1.15B25,2013-04-29 23:19:00,
2013-04-29 16:24:00,61.0,30.9,29.74,West,277,23.0,30.0,32,0.00,,,0.00,504,WeatherCatV1.15B25,2013-04-29 23:24:00,
2013-04-29 16:29:00,60.7,30.7,29.74,WNW,297,18.0,24.0,32,0.00,,,0.00,508,WeatherCatV1.15B25,2013-04-29 23:29:00,
2013-04-29 16:34:00,60.7,30.7,29.74,West,265,13.0,21.0,32,0.00,,,0.00,455,WeatherCatV1.15B25,2013-04-29 23:34:00,
2013-04-29 16:39:00,60.5,31.3,29.74,West,264,12.0,28.0,33,0.00,,,0.00,385,WeatherCatV1.15B25,2013-04-29 23:39:00,
2013-04-29 16:44:00,60.5,31.3,29.74,West,278,17.0,22.0,33,0.00,,,0.00,457,WeatherCatV1.15B25,2013-04-29 23:44:00,
2013-04-29 16:49:00,60.4,31.2,29.74,NNW,331,12.0,22.0,33,0.00,,,0.00,485,WeatherCatV1.15B25,2013-04-29 23:49:00,
2013-04-29 16:54:00,60.1,30.1,29.74,WNW,288,19.0,27.0,32,0.00,,,0.00,543,WeatherCatV1.15B25,2013-04-29 23:54:00,
2013-04-29 16:59:00,60.1,30.1,29.75,NW,314,22.0,26.0,32,0.00,,,0.00,575,WeatherCatV1.15B25,2013-04-29 23:59:00,
2013-04-29 17:04:00,60.2,30.2,29.75,WNW,283,9.0,24.0,32,0.00,,,0.00,404,WeatherCatV1.15B25,2013-04-30 00:04:00,
2013-04-29 17:09:00,60.2,30.2,29.75,WNW,283,11.0,25.0,32,0.00,,,0.00,360,WeatherCatV1.15B25,2013-04-30 00:09:00,
2013-04-29 17:14:00,59.9,30.0,29.75,NW,308,12.0,23.0,32,0.00,,,0.00,323,WeatherCatV1.15B25,2013-04-30 00:14:00,
2013-04-29 17:19:00,59.5,30.4,29.75,West,263,16.0,25.0,33,0.00,,,0.00,339,WeatherCatV1.15B25,2013-04-30 00:19:00,
2013-04-29 17:24:00,59.3,30.9,29.75,WNW,298,20.0,25.0,34,0.00,,,0.00,352,WeatherCatV1.15B25,2013-04-30 00:24:00,
2013-04-29 17:29:00,59.2,30.8,29.76,WNW,293,14.0,15.0,34,0.00,,,0.00,269,WeatherCatV1.15B25,2013-04-30 00:29:00,
2013-04-29 17:34:00,58.9,30.6,29.76,WNW,283,11.0,21.0,34,0.00,,,0.00,236,WeatherCatV1.15B25,2013-04-30 00:34:00,
2013-04-29 17:39:00,58.7,30.4,29.76,WNW,297,17.0,25.0,34,0.00,,,0.00,232,WeatherCatV1.15B25,2013-04-30 00:39:00,
2013-04-29 17:44:00,58.4,30.9,29.76,NW,304,18.0,29.0,35,0.00,,,0.00,214,WeatherCatV1.15B25,2013-04-30 00:44:00,
2013-04-29 17:49:00,58.3,30.8,29.76,NW,311,13.0,29.0,35,0.00,,,0.00,195,WeatherCatV1.15B25,2013-04-30 00:49:00,
2013-04-29 17:54:00,58.1,31.3,29.76,WNW,298,16.0,22.0,36,0.00,,,0.00,183,WeatherCatV1.15B25,2013-04-30 00:54:00,
2013-04-29 17:59:00,58.0,32.5,29.75,West,265,13.0,22.0,38,0.00,,,0.00,183,WeatherCatV1.15B25,2013-04-30 00:59:00,
2013-04-29 18:04:00,57.8,32.4,29.75,West,278,12.0,26.0,38,0.00,,,0.00,178,WeatherCatV1.15B25,2013-04-30 01:04:00,
2013-04-29 18:09:00,57.5,33.4,29.75,WNW,293,17.0,27.0,40,0.00,,,0.00,169,WeatherCatV1.15B25,2013-04-30 01:09:00,
2013-04-29 18:14:00,57.3,34.4,29.75,West,274,13.0,25.0,42,0.00,,,0.00,185,WeatherCatV1.15B25,2013-04-30 01:14:00,
2013-04-29 18:19:00,57.0,35.3,29.75,West,278,16.0,24.0,44,0.00,,,0.00,158,WeatherCatV1.15B25,2013-04-30 01:19:00,
2013-04-29 18:24:00,56.9,35.2,29.75,WNW,298,19.0,20.0,44,0.00,,,0.00,183,WeatherCatV1.15B25,2013-04-30 01:24:00,
2013-04-29 18:29:00,56.7,35.6,29.74,WSW,247,17.0,20.0,45,0.00,,,0.00,197,WeatherCatV1.15B25,2013-04-30 01:29:00,
2013-04-29 18:34:00,56.9,34.6,29.74,WNW,283,18.0,19.0,43,0.00,,,0.00,160,WeatherCatV1.15B25,2013-04-30 01:34:00,
2013-04-29 18:39:00,56.9,34.0,29.74,WSW,257,11.0,21.0,42,0.00,,,0.00,144,WeatherCatV1.15B25,2013-04-30 01:39:00,
2013-04-29 18:44:00,56.7,34.5,29.75,WNW,293,11.0,23.0,43,0.00,,,0.00,130,WeatherCatV1.15B25,2013-04-30 01:44:00,
2013-04-29 18:49:00,56.6,34.9,29.75,West,270,14.0,23.0,44,0.00,,,0.00,137,WeatherCatV1.15B25,2013-04-30 01:49:00,
2013-04-29 18:54:00,56.6,34.9,29.75,WSW,258,14.0,25.0,44,0.00,,,0.00,114,WeatherCatV1.15B25,2013-04-30 01:54:00,
2013-04-29 18:59:00,56.6,34.9,29.75,WNW,299,24.0,26.0,44,0.00,,,0.00,118,WeatherCatV1.15B25,2013-04-30 01:59:00,
2013-04-29 19:04:00,56.3,35.2,29.75,WNW,293,12.0,17.0,45,0.00,,,0.00,77,WeatherCatV1.15B25,2013-04-30 02:04:00,
2013-04-29 19:09:00,56.0,35.5,29.75,SW,234,15.0,20.0,46,0.00,,,0.00,65,WeatherCatV1.15B25,2013-04-30 02:09:00,
2013-04-29 19:14:00,55.7,35.8,29.73,WSW,257,15.0,22.0,47,0.00,,,0.00,72,WeatherCatV1.15B25,2013-04-30 02:14:00,
2013-04-29 19:19:00,55.6,35.7,29.73,WNW,293,18.0,21.0,47,0.00,,,0.00,44,WeatherCatV1.15B25,2013-04-30 02:19:00,
2013-04-29 19:24:00,55.3,35.9,29.73,WNW,283,12.0,18.0,48,0.00,,,0.00,33,WeatherCatV1.15B25,2013-04-30 02:24:00,
2013-04-29 19:29:00,55.0,35.7,29.75,West,262,7.0,22.0,48,0.00,,,0.00,25,WeatherCatV1.15B25,2013-04-30 02:29:00,
2013-04-29 19:34:00,54.7,35.4,29.75,WNW,288,12.0,18.0,48,0.00,,,0.00,18,WeatherCatV1.15B25,2013-04-30 02:34:00,
2013-04-29 19:39:00,54.5,35.7,29.75,WSW,257,10.0,22.0,49,0.00,,,0.00,16,WeatherCatV1.15B25,2013-04-30 02:39:00,
2013-04-29 19:44:00,54.4,36.2,29.75,West,270,10.0,19.0,50,0.00,,,0.00,14,WeatherCatV1.15B25,2013-04-30 02:44:00,
2013-04-29 19:49:00,54.1,34.8,29.75,WNW,288,10.0,17.0,48,0.00,,,0.00,0,WeatherCatV1.15B25,2013-04-30 02:49:00,
2013-04-29 19:54:00,53.9,35.2,29.75,WNW,297,15.0,17.0,49,0.00,,,0.00,0,WeatherCatV1.15B25,2013-04-30 02:54:00,
2013-04-29 19:59:00,53.8,35.6,29.75,WNW,301,15.0,17.0,50,0.00,,,0.00,0,WeatherCatV1.15B25,2013-04-30 02:59:00,
2013-04-29 20:04:00,53.5,34.3,29.75,WNW,283,12.0,18.0,48,0.00,,,0.00,0,WeatherCatV1.15B25,2013-04-30 03:04:00,
2013-04-29 20:09:00,53.3,35.1,29.75,WNW,283,17.0,17.0,50,0.00,,,0.00,0,WeatherCatV1.15B25,2013-04-30 03:09:00,
2013-04-29 20:14:00,53.2,35.5,29.72,West,266,13.0,16.0,51,0.00,,,0.00,0,WeatherCatV1.15B25,2013-04-30 03:14:00,
2013-04-29 20:19:00,53.1,36.4,29.72,WNW,303,16.0,21.0,53,0.00,,,0.00,0,WeatherCatV1.15B25,2013-04-30 03:19:00,
2013-04-29 20:24:00,52.8,36.6,29.72,WNW,300,16.0,23.0,54,0.00,,,0.00,0,WeatherCatV1.15B25,2013-04-30 03:24:00,
2013-04-29 20:29:00,52.6,36.0,29.72,WNW,293,20.0,21.0,53,0.00,,,0.00,0,WeatherCatV1.15B25,2013-04-30 03:29:00,
2013-04-29 20:34:00,52.5,36.3,29.72,NW,319,15.0,25.0,54,0.00,,,0.00,0,WeatherCatV1.15B25,2013-04-30 03:34:00,
2013-04-29 20:39:00,52.2,36.1,29.72,WNW,293,15.0,20.0,54,0.00,,,0.00,0,WeatherCatV1.15B25,2013-04-30 03:39:00,
2013-04-29 20:44:00,52.0,35.9,29.73,WNW,288,16.0,17.0,54,0.00,,,0.00,0,WeatherCatV1.15B25,2013-04-30 03:44:00,
2013-04-29 20:49:00,51.7,35.6,29.73,WNW,283,22.0,22.0,54,0.00,,,0.00,0,WeatherCatV1.15B25,2013-04-30 03:49:00,
2013-04-29 20:54:00,51.6,36.0,29.73,WNW,283,13.0,17.0,55,0.00,,,0.00,0,WeatherCatV1.15B25,2013-04-30 03:54:00,
2013-04-29 20:59:00,51.4,35.3,29.74,West,265,10.0,19.0,54,0.00,,,0.00,0,WeatherCatV1.15B25,2013-04-30 03:59:00,
2013-04-29 21:01:00,51.3,35.2,29.74,West,269,13.0,15.0,54,0.00,,,0.00,0,WeatherCatV1.15B25,2013-04-30 04:01:00,
2013-04-29 21:02:00,51.3,35.2,29.74,West,265,10.0,15.0,54,0.00,,,0.00,0,WeatherCatV1.15B25,2013-04-30 04:02:00,
2013-04-29 21:03:00,51.3,35.2,29.74,WNW,283,14.0,15.0,54,0.00,,,0.00,0,WeatherCatV1.15B25,2013-04-30 04:03:00,
2013-04-29 21:05:00,51.1,35.0,29.74,WNW,288,10.0,14.0,54,0.00,,,0.00,0,WeatherCatV1.15B25,2013-04-30 04:05:00,
2013-04-29 21:10:00,51.0,35.4,29.74,WNW,299,12.0,16.0,55,0.00,,,0.00,0,WeatherCatV1.15B25,2013-04-30 04:10:00,
2013-04-29 21:15:00,50.7,35.1,29.74,WNW,299,13.0,19.0,55,0.00,,,0.00,0,WeatherCatV1.15B25,2013-04-30 04:15:00,
2013-04-29 21:17:00,50.7,35.1,29.74,WNW,302,16.0,19.0,55,0.00,,,0.00,0,WeatherCatV1.15B25,2013-04-30 04:17:00,
2013-04-29 21:22:00,50.5,35.4,29.74,WNW,288,12.0,17.0,56,0.00,,,0.00,0,WeatherCatV1.15B25,2013-04-30 04:22:00,
2013-04-29 21:27:00,50.4,35.3,29.74,NW,323,19.0,20.0,56,0.00,,,0.00,0,WeatherCatV1.15B25,2013-04-30 04:27:00,
2013-04-29 21:32:00,50.4,35.3,29.75,West,278,18.0,21.0,56,0.00,,,0.00,0,WeatherCatV1.15B25,2013-04-30 04:32:00,
2013-04-29 21:37:00,50.2,35.1,29.75,WNW,297,18.0,20.0,56,0.00,,,0.00,0,WeatherCatV1.15B25,2013-04-30 04:37:00,
2013-04-29 21:42:00,50.1,34.6,29.75,NW,305,15.0,19.0,55,0.00,,,0.00,0,WeatherCatV1.15B25,2013-04-30 04:42:00,
2013-04-29 21:47:00,49.9,34.4,29.75,WNW,293,14.0,20.0,55,0.00,,,0.00,0,WeatherCatV1.15B25,2013-04-30 04:47:00,
2013-04-29 21:52:00,49.8,34.3,29.75,WSW,249,18.0,22.0,55,0.00,,,0.00,0,WeatherCatV1.15B25,2013-04-30 04:52:00,
2013-04-29 21:57:00,49.8,33.8,29.75,WNW,297,14.0,16.0,54,0.00,,,0.00,0,WeatherCatV1.15B25,2013-04-30 04:57:00,
2013-04-29 22:02:00,49.8,33.4,29.75,WNW,297,12.0,16.0,53,0.00,,,0.00,0,WeatherCatV1.15B25,2013-04-30 05:02:00,
2013-04-29 22:07:00,49.8,32.4,29.75,West,265,12.0,20.0,51,0.00,,,0.00,0,WeatherCatV1.15B25,2013-04-30 05:07:00,
2013-04-29 22:12:00,49.8,32.9,29.75,WNW,297,11.0,19.0,52,0.00,,,0.00,0,WeatherCatV1.15B25,2013-04-30 05:12:00,
2013-04-29 22:17:00,49.8,32.9,29.73,WNW,283,11.0,17.0,52,0.00,,,0.00,0,WeatherCatV1.15B25,2013-04-30 05:17:00,
2013-04-29 22:22:00,49.6,33.2,29.73,WNW,288,9.0,17.0,53,0.00,,,0.00,0,WeatherCatV1.15B25,2013-04-30 05:22:00,
2013-04-29 22:27:00,49.5,33.1,29.73,WNW,283,10.0,16.0,53,0.00,,,0.00,0,WeatherCatV1.15B25,2013-04-30 05:27:00,
2013-04-29 22:32:00,49.5,33.1,29.73,WNW,283,7.0,16.0,53,0.00,,,0.00,0,WeatherCatV1.15B25,2013-04-30 05:32:00,
2013-04-29 22:37:00,49.5,32.6,29.73,NW,312,11.0,18.0,52,0.00,,,0.00,0,WeatherCatV1.15B25,2013-04-30 05:37:00,
2013-04-29 22:42:00,49.5,32.6,29.73,WNW,283,16.0,16.0,52,0.00,,,0.00,0,WeatherCatV1.15B25,2013-04-30 05:42:00,
2013-04-29 22:47:00,49.5,32.1,29.73,WNW,283,13.0,16.0,51,0.00,,,0.00,0,WeatherCatV1.15B25,2013-04-30 05:47:00,
2013-04-29 22:52:00,49.5,32.1,29.73,NNW,342,9.0,18.0,51,0.00,,,0.00,0,WeatherCatV1.15B25,2013-04-30 05:52:00,
2013-04-29 22:57:00,49.4,32.0,29.73,WNW,293,5.0,14.0,51,0.00,,,0.00,0,WeatherCatV1.15B25,2013-04-30 05:57:00,
2013-04-29 23:02:00,49.2,32.3,29.73,WNW,283,7.0,12.0,52,0.00,,,0.00,0,WeatherCatV1.15B25,2013-04-30 06:02:00,
2013-04-29 23:07:00,49.1,32.2,29.73,WNW,302,6.0,10.0,52,0.00,,,0.00,0,WeatherCatV1.15B25,2013-04-30 06:07:00,
2013-04-29 23:12:00,48.9,32.1,29.73,WNW,288,9.0,12.0,52,0.00,,,0.00,0,WeatherCatV1.15B25,2013-04-30 06:12:00,
2013-04-29 23:17:00,48.6,32.3,29.71,NW,308,5.0,8.0,53,0.00,,,0.00,0,WeatherCatV1.15B25,2013-04-30 06:17:00,
2013-04-29 23:22:00,48.5,32.2,29.71,WNW,293,5.0,10.0,53,0.00,,,0.00,0,WeatherCatV1.15B25,2013-04-30 06:22:00,
2013-04-29 23:27:00,48.3,32.0,29.71,WNW,283,5.0,7.0,53,0.00,,,0.00,0,WeatherCatV1.15B25,2013-04-30 06:27:00,
2013-04-29 23:32:00,48.0,32.2,29.73,WNW,300,7.0,11.0,54,0.00,,,0.00,0,WeatherCatV1.15B25,2013-04-30 06:32:00,
2013-04-29 23:37:00,48.0,31.7,29.73,WNW,300,5.0,10.0,53,0.00,,,0.00,0,WeatherCatV1.15B25,2013-04-30 06:37:00,
2013-04-29 23:42:00,48.2,31.9,29.73,NW,312,6.0,9.0,53,0.00,,,0.00,0,WeatherCatV1.15B25,2013-04-30 06:42:00,
2013-04-29 23:47:00,48.2,32.3,29.73,WNW,293,6.0,9.0,54,0.00,,,0.00,0,WeatherCatV1.15B25,2013-04-30 06:47:00,
2013-04-29 23:52:00,48.0,32.2,29.73,NW,307,6.0,9.0,54,0.00,,,0.00,0,WeatherCatV1.15B25,2013-04-30 06:52:00,
2013-04-29 23:57:00,48.0,32.2,29.73,WNW,293,5.0,7.0,54,0.00,,,0.00,0,WeatherCatV1.15B25,2013-04-30 06:57:00,